Tracking 22879 objects as of 20-Apr-2021
HD Live streaming from Space Station
objects crossing your sky now

TELECOM 1A

Track TELECOM 1A now!
TELECOM 1A is classified as:


NORAD ID: 15159
Int'l Code: 1984-081B
Perigee: 36,156.2 km
Apogee: 36,497.9 km
Inclination: 14.8 °
Period: 1,463.4 minutes
Semi major axis: 42698 km
RCS: 10.2909 m2 (large)
Launch date: August 4, 1984
Source: France (FR)
Launch site: FRENCH GUIANA (FRGUI)
aabbcc
Your satellite tracking list
Your tracking list is empty




NASA's NSSDC Master Catalog

Two Line Element Set (TLE):
1 15159U 84081B   21109.52141135 -.00000227  00000-0  00000-0 0  9999
2 15159  14.7773 348.0371 0040012  10.5101 202.0897  0.98399097100073
Source of the keplerian elements: AFSPC